GW1888 Weather Reports


Display with metric or nautical units.
time (UTC)temp
F
wind
direction
speed
MPH
gust
MPH
rain 1hr
in
rain 24hr
in
rain mn
in
humidity
%
barometer
mb
20260905180732 73 297 4.0 5.0 0.00 0.00 0.00 71 1012.4
20260905180227 73 182 0.0 0.0 0.00 0.00 0.00 74 1012.6
20260905175726 72 215 1.0 2.0 0.00 0.00 0.00 76 1012.3
20260905175221 71 180 3.0 3.0 0.00 0.00 0.00 77 1012.4
20260905174716 72 177 1.0 2.0 0.00 0.00 0.00 78 1012.5
20260905174212 73 176 2.0 3.0 0.00 0.00 0.00 76 1012.5
20260905173708 73 189 2.0 2.0 0.00 0.00 0.00 75 1012.5
20260905173204 72 202 2.0 2.0 0.00 0.00 0.00 72 1012.7
20260905172703 71 204 3.0 5.0 0.00 0.00 0.00 76 1012.7
20260905172157 72 231 3.0 3.0 0.00 0.00 0.00 74 1012.5
20260905171653 72 209 1.0 2.0 0.00 0.00 0.00 74 1012.5
20260905171149 72 170 1.0 2.0 0.00 0.00 0.00 75 1012.5
20260905170646 72 177 1.0 2.0 0.00 0.00 0.00 74 1012.8
20260905170141 71 194 1.0 2.0 0.00 0.00 0.00 79 1012.5
20260905165640 70 314 5.0 7.0 0.00 0.00 0.00 78 1012.7
20260905165136 70 101 2.0 3.0 0.00 0.00 0.00 78 1012.6
20260905164631 71 209 2.0 3.0 0.00 0.00 0.00 77 1012.6
20260905164130 73 208 2.0 3.0 0.00 0.00 0.00 76 1012.5
20260905163626 73 182 3.0 3.0 0.00 0.00 0.00 76 1012.4
20260905163123 71 210 3.0 3.0 0.00 0.00 0.00 78 1012.6
20260905162619 73 49 3.0 3.0 0.00 0.00 0.00 75 1012.4
20260905162118 72 129 7.0 9.0 0.00 0.00 0.00 76 1012.4
20260905161617 72 221 7.0 10.0 0.00 0.00 0.00 74 1012.5
20260905161115 73 188 1.0 2.0 0.00 0.00 0.00 75 1012.4
20260905160615 73 184 5.0 9.0 0.00 0.00 0.00 72 1012.3
20260905160109 72 212 3.0 3.0 0.00 0.00 0.00 73 1012.4
20260905155604 71 186 2.0 3.0 0.00 0.00 0.00 77 1012.4
20260905155103 72 191 2.0 2.0 0.00 0.00 0.00 76 1012.5
20260905154557 72 204 2.0 3.0 0.00 0.00 0.00 75 1012.5
20260905154053 71 290 6.0 9.0 0.00 0.00 0.00 75 1012.6
20260905153548 70 178 0.0 2.0 0.00 0.00 0.00 77 1012.5
20260905153048 69 4 6.0 7.0 0.00 0.00 0.00 78 1012.7
20260905152543 69 359 3.0 3.0 0.00 0.00 0.00 79 1012.8
20260905152038 69 182 4.0 5.0 0.00 0.00 0.00 79 1012.7
20260905151533 69 206 5.0 5.0 0.00 0.00 0.00 80 1012.8
20260905151029 68 203 3.0 5.0 0.00 0.00 0.00 81 1012.6
20260905150524 68 194 3.0 3.0 0.00 0.00 0.00 81 1012.8
20260905150021 69 177 2.0 3.0 0.00 0.00 0.00 81 1012.7
20260905145515 69 203 3.0 3.0 0.00 0.00 0.00 78 1012.6
20260905145015 70 346 3.0 3.0 0.00 0.00 0.00 78 1012.7
20260905144510 70 202 2.0 2.0 0.00 0.00 0.00 78 1012.5
20260905144009 69 169 0.0 0.0 0.00 0.00 0.00 81 1012.5
20260905143508 68 49 2.0 2.0 0.00 0.00 0.00 82 1012.5
20260905143003 68 193 1.0 2.0 0.00 0.00 0.00 81 1012.7
20260905142501 68 346 6.0 9.0 0.00 0.00 0.00 81 1012.6
20260905141957 68 350 3.0 3.0 0.00 0.00 0.00 82 1012.4
20260905141451 68 228 5.0 7.0 0.00 0.00 0.00 79 1012.4
20260905140948 68 174 0.0 0.0 0.00 0.00 0.00 83 1012.3
20260905140442 68 10 4.0 5.0 0.00 0.00 0.00 83 1012.4
20260905135936 69 243 0.0 2.0 0.00 0.00 0.00 83 1012.4
20260905135432 68 184 0.0 0.0 0.00 0.00 0.00 84 1012.5
20260905134927 67 0 2.0 3.0 0.00 0.00 0.00 84 1012.2
20260905134426 68 197 0.0 2.0 0.00 0.00 0.00 86 1012.2
20260905133921 68 255 1.0 3.0 0.00 0.00 0.00 85 1012.1
20260905133420 68 240 2.0 2.0 0.00 0.00 0.00 86 1012.1
20260905132920 68 225 1.0 2.0 0.00 0.00 0.00 88 1012.2
20260905132415 67 165 0.0 0.0 0.00 0.00 0.00 87 1012.0
20260905131910 67 320 2.0 3.0 0.00 0.00 0.00 87 1012.1
20260905131406 67 100 3.0 3.0 0.00 0.00 0.00 86 1012.1
20260905130901 67 206 2.0 2.0 0.00 0.00 0.00 86 1011.9
20260905130400 67 201 1.0 2.0 0.00 0.00 0.00 86 1012.0
20260905125855 66 22 4.0 5.0 0.00 0.00 0.00 87 1011.9
20260905125350 66 184 0.0 0.0 0.00 0.00 0.00 91 1011.8
20260905124845 66 190 1.0 2.0 0.00 0.00 0.00 92 1011.8
20260905124342 65 189 0.0 0.0 0.00 0.00 0.00 93 1012.0
20260905123842 65 254 3.0 5.0 0.00 0.00 0.00 94 1011.7
20260905123338 65 189 2.0 2.0 0.00 0.00 0.00 94 1011.6
20260905122833 64 194 0.0 0.0 0.00 0.00 0.00 94 1011.7
20260905122332 64 181 3.0 3.0 0.00 0.00 0.00 95 1011.6
20260905121828 64 196 0.0 2.0 0.00 0.00 0.00 94 1011.7
20260905121324 63 237 3.0 3.0 0.00 0.00 0.00 95 1011.8
20260905120822 63 199 2.0 3.0 0.00 0.00 0.00 95 1011.8
20260905120317 63 200 1.0 2.0 0.00 0.00 0.00 95 1011.7
20260905115812 63 207 3.0 3.0 0.00 0.00 0.00 96 1011.7
20260905115311 63 256 2.0 3.0 0.00 0.00 0.00 97 1011.6
20260905114812 62 252 3.0 5.0 0.00 0.00 0.00 96 1011.6
20260905114311 62 164 0.0 0.0 0.00 0.00 0.00 96 1011.6
20260905113810 62 162 0.0 0.0 0.00 0.00 0.00 96 1011.4
20260905113306 62 193 0.0 0.0 0.00 0.00 0.00 97 1011.5
20260905112801 62 36 1.0 3.0 0.00 0.00 0.00 97 1011.4
20260905112256 63 193 2.0 2.0 0.00 0.00 0.00 97 1011.5
20260905111751 62 194 0.0 2.0 0.00 0.00 0.00 97 1011.6
20260905111245 62 197 0.0 0.0 0.00 0.00 0.00 97 1011.6
20260905110744 62 221 2.0 2.0 0.00 0.00 0.00 97 1011.3
20260905110238 62 209 3.0 3.0 0.00 0.00 0.00 98 1011.4
20260905105734 62 240 1.0 3.0 0.00 0.00 0.00 98 1011.1
20260905105233 61 232 2.0 3.0 0.00 0.00 0.00 98 1011.2
20260905104728 61 240 4.0 7.0 0.00 0.00 0.00 99 1011.0
20260905104224 60 183 0.0 0.0 0.00 0.00 0.00 99 1011.2
20260905103719 60 134 0.0 0.0 0.00 0.00 0.00 99 1011.2
20260905103215 60 164 0.0 0.0 0.00 0.00 0.00 99 1011.2
20260905102710 60 97 0.0 0.0 0.00 0.00 0.00 99 1011.0
20260905102207 60 170 0.0 0.0 0.00 0.00 0.00 99 1010.8
20260905101706 60 192 0.0 0.0 0.00 0.00 0.00 99 1010.9
20260905101204 60 166 0.0 0.0 0.00 0.00 0.00 99 1010.7
20260905100700 60 166 0.0 0.0 0.00 0.00 0.00 99 1010.8
20260905100155 60 148 0.0 0.0 0.00 0.00 0.00 99 1010.9
20260905095654 60 167 0.0 0.0 0.00 0.00 0.00 99 1010.7
20260905095149 60 164 0.0 0.0 0.00 0.00 0.00 99 1010.6
20260905094644 59 169 0.0 0.0 0.00 0.00 0.00 99 1010.7
20260905094143 59 163 0.0 0.0 0.00 0.00 0.00 99 1010.7
20260905093638 59 168 0.0 0.0 0.00 0.00 0.00 99 1010.6
20260905093135 59 143 0.0 0.0 0.00 0.00 0.00 99 1010.8
20260905092634 59 166 0.0 0.0 0.00 0.00 0.00 99 1010.6
20260905092130 59 155 0.0 0.0 0.00 0.00 0.00 99 1010.8
20260905091629 59 168 0.0 0.0 0.00 0.00 0.00 99 1010.7
20260905091124 59 168 0.0 0.0 0.00 0.00 0.00 99 1010.7
20260905090619 59 174 0.0 0.0 0.00 0.00 0.00 99 1010.6
20260905090114 59 169 0.0 0.0 0.00 0.00 0.00 99 1010.4
20260905085612 59 188 0.0 0.0 0.00 0.00 0.00 99 1010.4
20260905085109 59 173 0.0 0.0 0.00 0.00 0.00 99 1010.5
20260905084607 59 164 0.0 0.0 0.00 0.00 0.00 99 1010.6
20260905084103 59 170 0.0 0.0 0.00 0.00 0.00 99 1010.6
20260905083557 59 158 0.0 0.0 0.00 0.00 0.00 99 1010.6
20260905083054 59 166 0.0 2.0 0.00 0.00 0.00 99 1010.7
20260905082549 59 167 0.0 0.0 0.00 0.00 0.00 99 1010.7
20260905082045 59 139 0.0 2.0 0.00 0.00 0.00 98 1010.8
20260905081544 59 111 0.0 0.0 0.00 0.00 0.00 98 1010.6
20260905081039 59 121 0.0 0.0 0.00 0.00 0.00 98 1010.7
20260905080538 60 126 0.0 0.0 0.00 0.00 0.00 97 1010.5
20260905080033 60 168 0.0 0.0 0.00 0.00 0.00 97 1010.7
20260905075526 60 171 0.0 0.0 0.00 0.00 0.00 96 1010.4
20260905075021 60 173 0.0 0.0 0.00 0.00 0.00 96 1010.6
20260905074516 61 171 0.0 0.0 0.00 0.00 0.00 96 1010.6
20260905074011 61 159 0.0 0.0 0.00 0.00 0.00 95 1010.7
20260905073506 61 233 0.0 0.0 0.00 0.00 0.00 95 1010.7
20260905073002 61 168 0.0 0.0 0.00 0.00 0.00 95 1010.7
20260905072456 62 11 3.0 3.0 0.00 0.00 0.00 95 1010.8
20260905071951 62 137 2.0 2.0 0.00 0.00 0.00 95 1010.8
20260905071449 62 63 2.0 3.0 0.00 0.00 0.00 95 1010.8
20260905070948 62 174 0.0 0.0 0.00 0.00 0.00 95 1011.0
20260905070444 62 171 0.0 0.0 0.00 0.00 0.00 95 1010.7
20260905065944 62 165 0.0 0.0 0.00 0.00 0.00 95 1010.9
20260905065442 62 181 0.0 0.0 0.00 0.00 0.00 95 1010.8
20260905064937 61 63 2.0 3.0 0.00 0.00 0.00 95 1010.9
20260905064432 61 248 0.0 0.0 0.00 0.00 0.00 95 1010.8
20260905063927 62 334 0.0 0.0 0.00 0.00 0.00 95 1010.9
20260905063422 62 170 0.0 0.0 0.00 0.00 0.00 95 1010.9
20260905062918 62 172 0.0 0.0 0.00 0.00 0.00 94 1010.9
20260905062412 62 152 0.0 0.0 0.00 0.00 0.00 94 1010.9
20260905061907 63 206 0.0 0.0 0.00 0.00 0.00 93 1010.9
20260905061406 63 182 0.0 0.0 0.00 0.00 0.00 92 1010.9
20260905060901 63 169 0.0 0.0 0.00 0.00 0.00 93 1011.2
20260905060357 63 152 1.0 2.0 0.00 0.00 0.00 93 1011.1
20260905055856 63 171 0.0 0.0 0.00 0.00 0.00 93 1011.1
20260905055352 63 156 0.0 2.0 0.00 0.00 0.00 93 1011.1
20260905054851 62 172 0.0 0.0 0.00 0.00 0.00 94 1011.0
20260905054347 62 177 0.0 0.0 0.00 0.00 0.00 94 1011.1
20260905053841 62 172 0.0 0.0 0.00 0.00 0.00 93 1011.1
20260905053341 62 172 0.0 0.0 0.00 0.00 0.00 93 1011.1
20260905052837 63 172 0.0 0.0 0.00 0.00 0.00 93 1011.1
20260905052331 63 170 0.0 0.0 0.00 0.00 0.00 92 1011.2
20260905051831 63 168 0.0 0.0 0.00 0.00 0.00 92 1011.3
20260905051327 62 171 0.0 0.0 0.00 0.00 0.00 92 1011.3
20260905050824 62 167 0.0 0.0 0.00 0.00 0.00 92 1011.3
20260905050320 62 172 0.0 0.0 0.00 0.00 0.00 92 1011.1
20260905045814 62 172 0.0 0.0 0.00 0.00 0.00 92 1011.3
20260905045310 63 171 0.0 0.0 0.00 0.00 0.00 92 1011.1
20260905044805 63 192 0.0 0.0 0.00 0.00 0.00 92 1011.1
20260905044300 63 172 0.0 0.0 0.00 0.00 0.00 91 1011.1
20260905043758 63 166 0.0 2.0 0.00 0.00 0.00 91 1011.2
20260905043254 63 171 1.0 2.0 0.00 0.00 0.00 91 1011.3
20260905042754 63 130 0.0 0.0 0.00 0.00 0.00 91 1011.2
20260905042253 64 170 0.0 0.0 0.00 0.00 0.00 90 1011.3
20260905041748 64 175 0.0 0.0 0.00 0.00 0.00 90 1011.1
20260905041244 64 174 0.0 0.0 0.00 0.00 0.00 89 1010.9
20260905040739 64 145 2.0 2.0 0.00 0.00 0.00 88 1011.2
20260905040237 63 60 0.0 2.0 0.00 0.00 0.00 90 1011.1
20260905035732 63 138 0.0 0.0 0.00 0.00 0.00 90 1011.1
20260905035229 64 172 0.0 0.0 0.00 0.00 0.00 89 1011.2
20260905034725 64 174 0.0 0.0 0.00 0.00 0.00 89 1011.1
20260905034225 64 176 0.0 0.0 0.00 0.00 0.00 88 1011.1
20260905033723 65 171 0.0 0.0 0.00 0.00 0.00 88 1011.1
20260905033219 65 185 0.0 2.0 0.00 0.00 0.00 87 1011.1
20260905032718 65 166 0.0 0.0 0.00 0.00 0.00 87 1010.9
20260905032214 66 166 0.0 0.0 0.00 0.00 0.00 87 1011.2
20260905031709 66 17 3.0 3.0 0.00 0.00 0.00 86 1011.1
20260905031205 66 82 0.0 0.0 0.00 0.00 0.00 87 1011.3
20260905030659 66 100 2.0 2.0 0.00 0.00 0.00 87 1011.2
20260905030154 66 167 0.0 0.0 0.00 0.00 0.00 87 1011.1
20260905025649 66 163 0.0 0.0 0.00 0.00 0.00 87 1011.2
20260905025145 67 162 1.0 2.0 0.00 0.00 0.00 87 1011.5
20260905024641 67 179 0.0 0.0 0.00 0.00 0.00 86 1011.6
20260905024136 67 177 0.0 0.0 0.00 0.00 0.00 85 1011.4
20260905023632 68 166 1.0 3.0 0.00 0.00 0.00 84 1011.6
20260905023131 67 207 4.0 5.0 0.00 0.00 0.00 86 1011.5
20260905022630 67 149 0.0 0.0 0.00 0.00 0.00 85 1011.5
20260905022125 66 168 0.0 0.0 0.00 0.00 0.00 86 1011.4
20260905021620 66 156 1.0 2.0 0.00 0.00 0.00 87 1011.5
20260905021115 66 171 0.0 0.0 0.00 0.00 0.00 88 1011.7
20260905020615 66 111 2.0 2.0 0.00 0.00 0.00 90 1011.8
20260905020111 66 124 2.0 2.0 0.00 0.00 0.00 90 1011.7
20260905015609 67 166 0.0 0.0 0.00 0.00 0.00 89 1011.8
20260905015103 68 180 0.0 0.0 0.00 0.00 0.00 86 1011.6
20260905014557 68 180 0.0 0.0 0.00 0.00 0.00 85 1011.7
20260905014053 68 204 2.0 2.0 0.00 0.00 0.00 84 1011.8
20260905013549 67 207 2.0 3.0 0.00 0.00 0.00 87 1011.7
20260905013045 66 163 0.0 0.0 0.00 0.00 0.00 89 1011.7
20260905012544 66 162 0.0 0.0 0.00 0.00 0.00 88 1011.6
20260905012042 66 162 0.0 0.0 0.00 0.00 0.00 88 1011.6
20260905011537 66 162 0.0 0.0 0.00 0.00 0.00 87 1011.6
20260905011033 66 162 0.0 0.0 0.00 0.00 0.00 85 1011.6
20260905010527 66 163 0.0 0.0 0.00 0.00 0.00 85 1011.7
20260905010024 66 164 0.0 0.0 0.00 0.00 0.00 85 1011.7
20260905005519 66 156 0.0 0.0 0.00 0.00 0.00 85 1011.6
20260905005014 67 166 0.0 0.0 0.00 0.00 0.00 84 1011.7
20260905004509 67 167 0.0 0.0 0.00 0.00 0.00 83 1011.6
20260905004004 67 153 0.0 0.0 0.00 0.00 0.00 83 1011.4
20260905003459 68 161 0.0 0.0 0.00 0.00 0.00 81 1011.7
20260905002954 68 166 0.0 0.0 0.00 0.00 0.00 81 1011.4
20260905002449 68 166 0.0 0.0 0.00 0.00 0.00 79 1011.6
20260905001944 69 166 0.0 0.0 0.00 0.00 0.00 79 1011.6
20260905001439 69 184 0.0 0.0 0.00 0.00 0.00 79 1011.6
20260905000933 69 169 0.0 0.0 0.00 0.00 0.00 79 1011.7
20260905000431 69 139 0.0 2.0 0.00 0.00 0.00 79 1011.6
20260904235924 70 158 1.0 2.0 0.00 0.00 0.00 76 1011.5
20260904235420 70 177 0.0 0.0 0.00 0.00 0.00 74 1011.3
20260904234919 71 174 0.0 0.0 0.00 0.00 0.00 75 1011.3
20260904234414 70 112 3.0 3.0 0.00 0.00 0.00 74 1011.2
20260904233910 70 185 0.0 0.0 0.00 0.00 0.00 77 1011.1
20260904233405 70 197 0.0 0.0 0.00 0.00 0.00 76 1011.1
20260904232902 70 160 1.0 2.0 0.00 0.00 0.00 78 1011.1
20260904232358 70 159 0.0 0.0 0.00 0.00 0.00 77 1011.2
20260904231854 71 151 1.0 2.0 0.00 0.00 0.00 77 1011.1
20260904231349 71 170 0.0 0.0 0.00 0.00 0.00 75 1011.2
20260904230844 71 139 2.0 2.0 0.00 0.00 0.00 73 1011.1
20260904230343 71 170 0.0 0.0 0.00 0.00 0.00 75 1011.1
20260904225838 71 180 0.0 0.0 0.00 0.00 0.00 77 1010.8
20260904225336 73 168 0.0 0.0 0.00 0.00 0.00 74 1010.9
20260904224836 74 168 0.0 0.0 0.00 0.00 0.00 71 1011.0
20260904224331 75 185 0.0 0.0 0.00 0.00 0.00 73 1011.0
20260904223831 75 156 1.0 2.0 0.00 0.00 0.00 72 1011.0
20260904223325 76 180 0.0 0.0 0.00 0.00 0.00 71 1011.0
20260904222821 76 318 3.0 3.0 0.00 0.00 0.00 66 1011.1
20260904222315 76 341 2.0 3.0 0.00 0.00 0.00 64 1011.1
20260904221810 77 27 3.0 3.0 0.00 0.00 0.00 64 1011.1
20260904221310 77 191 0.0 0.0 0.00 0.00 0.00 69 1010.9
20260904220806 77 26 4.0 5.0 0.00 0.00 0.00 64 1011.0
20260904220305 75 170 2.0 2.0 0.00 0.00 0.00 67 1010.9
20260904215800 74 276 3.0 3.0 0.00 0.00 0.00 68 1011.1
20260904215255 75 171 0.0 0.0 0.00 0.00 0.00 71 1010.9
20260904214751 75 198 2.0 3.0 0.00 0.00 0.00 68 1011.1
20260904214247 75 148 2.0 3.0 0.00 0.00 0.00 68 1010.9
20260904213744 75 192 0.0 0.0 0.00 0.00 0.00 71 1010.8
20260904213241 76 46 3.0 3.0 0.00 0.00 0.00 68 1010.9
20260904212736 76 131 0.0 0.0 0.00 0.00 0.00 69 1010.9
20260904212236 77 143 1.0 2.0 0.00 0.00 0.00 69 1010.9
20260904211731 78 186 1.0 2.0 0.00 0.00 0.00 66 1010.9
20260904211226 77 187 0.0 2.0 0.00 0.00 0.00 65 1010.9
20260904210721 75 174 0.0 0.0 0.00 0.00 0.00 70 1010.8
20260904210216 75 189 0.0 0.0 0.00 0.00 0.00 68 1011.0
20260904205712 76 195 0.0 0.0 0.00 0.00 0.00 68 1010.7
20260904205208 76 177 0.0 0.0 0.00 0.00 0.00 69 1010.8
20260904204704 76 168 0.0 0.0 0.00 0.00 0.00 70 1010.7
20260904204200 76 182 1.0 2.0 0.00 0.00 0.00 68 1010.6
20260904203655 76 319 4.0 5.0 0.00 0.00 0.00 66 1010.8
20260904203152 76 200 2.0 3.0 0.00 0.00 0.00 67 1010.5
20260904202647 77 46 2.0 3.0 0.00 0.00 0.00 66 1010.7
20260904202144 77 190 1.0 2.0 0.00 0.00 0.00 65 1010.8
20260904201638 78 214 0.0 0.0 0.00 0.00 0.00 67 1010.7
20260904201133 78 191 2.0 3.0 0.00 0.00 0.00 70 1010.6
20260904200632 79 191 4.0 5.0 0.00 0.00 0.00 63 1010.7
20260904200128 79 202 7.0 9.0 0.00 0.00 0.00 68 1010.6
20260904195626 79 289 9.0 10.0 0.00 0.00 0.00 63 1010.8
20260904195126 78 10 4.0 5.0 0.00 0.00 0.00 66 1010.8
20260904194619 79 268 4.0 5.0 0.00 0.00 0.00 62 1010.7
20260904194115 80 203 6.0 7.0 0.00 0.00 0.00 63 1010.7
20260904193609 79 245 5.0 7.0 0.00 0.00 0.00 62 1010.8
20260904193106 78 198 4.0 5.0 0.00 0.00 0.00 65 1011.0
20260904192605 77 20 6.0 7.0 0.00 0.00 0.00 64 1011.1
20260904192101 77 143 1.0 2.0 0.00 0.00 0.00 63 1010.9
20260904191558 77 166 0.0 0.0 0.00 0.00 0.00 64 1011.0
20260904191054 78 124 3.0 3.0 0.00 0.00 0.00 64 1011.0
20260904190549 80 237 6.0 9.0 0.00 0.00 0.00 63 1010.9
20260904190045 80 207 2.0 2.0 0.00 0.00 0.00 59 1010.9
20260904185542 80 191 0.0 0.0 0.00 0.00 0.00 68 1011.0
20260904185036 78 163 2.0 2.0 0.00 0.00 0.00 65 1010.9
20260904184531 78 196 4.0 5.0 0.00 0.00 0.00 68 1010.9
20260904184026 79 220 2.0 2.0 0.00 0.00 0.00 65 1011.1
20260904183521 78 312 3.0 3.0 0.00 0.00 0.00 69 1011.2
20260904183016 78 188 2.0 3.0 0.00 0.00 0.00 62 1011.1
20260904182512 79 254 4.0 5.0 0.00 0.00 0.00 63 1011.1
20260904182012 78 309 3.0 3.0 0.00 0.00 0.00 61 1011.0
20260904181507 79 216 0.0 0.0 0.00 0.00 0.00 64 1010.9